| time (UTC) | temp F | wind direction | speed knots | gust knots | rain 1hr in | rain 24hr in | rain mn in | humidity % | barometer mb |
| 20260507060040 | 63 | 279 | 1.7 | 2.6 | 0.00 | 0.00 | 0.00 | 75 | 1018.5 |
| 20260507054528 | 63 | 249 | 1.7 | 5.2 | 0.00 | 0.00 | 0.00 | 73 | 1018.5 |
| 20260507053028 | 64 | 317 | 2.6 | 5.2 | 0.00 | 0.00 | 0.00 | 71 | 1018.4 |
| 20260507051528 | 64 | 254 | 3.5 | 5.2 | 0.00 | 0.00 | 0.00 | 70 | 1018.4 |
| 20260507050033 | 64 | 261 | 1.7 | 5.2 | 0.00 | 0.00 | 0.00 | 69 | 1018.3 |
| 20260507044526 | 64 | 271 | 2.6 | 5.2 | 0.00 | 0.00 | 0.00 | 69 | 1018.4 |
| 20260507043026 | 65 | 263 | 2.6 | 6.1 | 0.00 | 0.00 | 0.00 | 69 | 1018.3 |
| 20260507041525 | 65 | 261 | 0.9 | 6.1 | 0.00 | 0.00 | 0.00 | 70 | 1018.2 |
| 20260507040026 | 66 | 302 | 1.7 | 6.1 | 0.00 | 0.00 | 0.00 | 68 | 1018.0 |
| 20260507034532 | 66 | 278 | 1.7 | 5.2 | 0.00 | 0.00 | 0.00 | 67 | 1017.8 |
| 20260507033026 | 67 | 259 | 3.5 | 7.8 | 0.00 | 0.00 | 0.00 | 65 | 1017.7 |
| 20260507031522 | 67 | 324 | 3.5 | 7.0 | 0.00 | 0.00 | 0.00 | 63 | 1017.5 |
| 20260507030023 | 68 | 302 | 3.5 | 7.0 | 0.00 | 0.00 | 0.00 | 62 | 1017.4 |
| 20260507024524 | 68 | 345 | 2.6 | 7.0 | 0.00 | 0.00 | 0.00 | 63 | 1017.3 |
| 20260507023024 | 69 | 222 | 3.5 | 7.0 | 0.00 | 0.00 | 0.00 | 63 | 1017.0 |
| 20260507021519 | 69 | 187 | 0.9 | 7.8 | 0.00 | 0.00 | 0.00 | 61 | 1017.0 |
| 20260507020029 | 70 | 191 | 2.6 | 7.0 | 0.00 | 0.00 | 0.00 | 60 | 1016.7 |
| 20260507014518 | 70 | 229 | 4.3 | 7.8 | 0.00 | 0.00 | 0.00 | 59 | 1016.8 |
| 20260507013036 | 71 | 169 | 3.5 | 8.7 | 0.00 | 0.00 | 0.00 | 58 | 1016.6 |
| 20260507011517 | 71 | 223 | 6.1 | 9.6 | 0.00 | 0.00 | 0.00 | 57 | 1016.4 |
| 20260507010017 | 72 | 163 | 4.3 | 9.6 | 0.00 | 0.00 | 0.00 | 58 | 1016.4 |
| 20260507004515 | 72 | 200 | 3.5 | 7.8 | 0.00 | 0.00 | 0.00 | 56 | 1016.4 |
| 20260507003015 | 72 | 256 | 4.3 | 10.4 | 0.00 | 0.00 | 0.00 | 56 | 1016.4 |
| 20260507001515 | 72 | 234 | 6.1 | 10.4 | 0.00 | 0.00 | 0.00 | 55 | 1016.3 |
| 20260507000016 | 73 | 216 | 7.0 | 9.6 | 0.00 | 0.00 | 0.00 | 54 | 1016.3 |
| 20260506234520 | 72 | 240 | 5.2 | 7.8 | 0.00 | 0.00 | 0.00 | 55 | 1016.2 |
| 20260506233014 | 72 | 269 | 4.3 | 9.6 | 0.00 | 0.00 | 0.00 | 56 | 1016.4 |
| 20260506231511 | 72 | 255 | 4.3 | 11.3 | 0.00 | 0.00 | 0.00 | 55 | 1016.4 |
| 20260506230010 | 72 | 240 | 4.3 | 8.7 | 0.00 | 0.00 | 0.00 | 55 | 1016.4 |
| 20260506224509 | 72 | 173 | 7.0 | 10.4 | 0.00 | 0.00 | 0.00 | 52 | 1016.6 |
| 20260506223007 | 73 | 211 | 6.1 | 11.3 | 0.00 | 0.00 | 0.00 | 52 | 1016.7 |
| 20260506221505 | 73 | 228 | 5.2 | 9.6 | 0.00 | 0.00 | 0.00 | 52 | 1016.8 |
| 20260506220010 | 73 | 232 | 4.3 | 11.3 | 0.00 | 0.00 | 0.00 | 54 | 1017.1 |
| 20260506214502 | 74 | 190 | 3.5 | 7.0 | 0.00 | 0.00 | 0.00 | 52 | 1017.1 |
| 20260506213100 | 73 | 149 | 2.6 | 8.7 | 0.00 | 0.00 | 0.00 | 53 | 1017.2 |
| 20260506211609 | 72 | 198 | 5.2 | 10.4 | 0.00 | 0.00 | 0.00 | 53 | 1017.4 |
| 20260506210056 | 72 | 250 | 5.2 | 9.6 | 0.00 | 0.00 | 0.00 | 54 | 1017.6 |
| 20260506204554 | 72 | 248 | 5.2 | 12.2 | 0.00 | 0.00 | 0.00 | 56 | 1017.7 |
| 20260506203053 | 71 | 219 | 4.3 | 8.7 | 0.00 | 0.00 | 0.00 | 55 | 1017.9 |
| 20260506201552 | 73 | 186 | 3.5 | 8.7 | 0.00 | 0.00 | 0.00 | 54 | 1018.1 |
| 20260506200050 | 73 | 267 | 1.7 | 5.2 | 0.00 | 0.00 | 0.00 | 52 | 1018.3 |
| 20260506194550 | 71 | 321 | 0.9 | 7.8 | 0.00 | 0.00 | 0.00 | 51 | 1018.4 |
| 20260506193045 | 72 | 236 | 3.5 | 7.8 | 0.00 | 0.00 | 0.00 | 52 | 1018.5 |
| 20260506191542 | 70 | 300 | 1.7 | 4.3 | 0.00 | 0.00 | 0.00 | 52 | 1018.6 |
| 20260506190041 | 70 | 339 | 3.5 | 7.8 | 0.00 | 0.00 | 0.00 | 53 | 1018.8 |
| 20260506184539 | 70 | 314 | 1.7 | 6.1 | 0.00 | 0.00 | 0.00 | 54 | 1019.0 |
| 20260506183038 | 69 | 146 | 4.3 | 7.0 | 0.00 | 0.00 | 0.00 | 54 | 1019.2 |
| 20260506181535 | 68 | 319 | 0.9 | 7.0 | 0.00 | 0.00 | 0.00 | 56 | 1019.3 |
| 20260506180036 | 67 | 290 | 0.9 | 4.3 | 0.00 | 0.00 | 0.00 | 57 | 1019.4 |
| 20260506174529 | 66 | 11 | 1.7 | 5.2 | 0.00 | 0.00 | 0.00 | 59 | 1019.4 |
| 20260506173025 | 65 | 309 | 1.7 | 4.3 | 0.00 | 0.00 | 0.00 | 62 | 1019.5 |
| 20260506171525 | 65 | 276 | 0.9 | 4.3 | 0.00 | 0.00 | 0.00 | 62 | 1019.5 |
| 20260506170022 | 65 | 263 | 1.7 | 4.3 | 0.00 | 0.01 | 0.00 | 63 | 1019.4 |
| 20260506164518 | 64 | 328 | 3.5 | 5.2 | 0.00 | 0.01 | 0.00 | 62 | 1019.4 |
| 20260506163019 | 63 | 273 | 0.9 | 4.3 | 0.00 | 0.01 | 0.00 | 68 | 1019.3 |
| 20260506161515 | 63 | 304 | 2.6 | 5.2 | 0.00 | 0.01 | 0.00 | 68 | 1019.4 |
| 20260506160017 | 63 | 311 | 1.7 | 5.2 | 0.00 | 0.06 | 0.00 | 68 | 1019.4 |
| 20260506154513 | 63 | 144 | 0.9 | 4.3 | 0.00 | 0.06 | 0.00 | 68 | 1019.5 |
| 20260506153011 | 62 | 34 | 0.9 | 4.3 | 0.00 | 0.06 | 0.00 | 67 | 1019.6 |
| 20260506151509 | 61 | 13 | 0.9 | 2.6 | 0.00 | 0.06 | 0.00 | 70 | 1019.5 |
| 20260506150004 | 59 | 76 | 0.9 | 4.3 | 0.00 | 0.08 | 0.00 | 74 | 1019.4 |
| 20260506144501 | 58 | 90 | 3.5 | 5.2 | 0.00 | 0.08 | 0.00 | 75 | 1019.5 |
| 20260506143100 | 57 | 91 | 2.6 | 5.2 | 0.00 | 0.08 | 0.00 | 78 | 1019.4 |
| 20260506143001 | 56 | 96 | 2.6 | 4.3 | 0.00 | 0.08 | 0.00 | 78 | 1019.3 |
| 20260506141611 | 55 | 72 | 0.0 | 4.3 | 0.00 | 0.08 | 0.00 | 81 | 1019.4 |
| 20260506140058 | 54 | 119 | 0.0 | 1.7 | 0.00 | 0.08 | 0.00 | 82 | 1019.2 |
| 20260506134556 | 54 | 100 | 0.9 | 3.5 | 0.00 | 0.08 | 0.00 | 83 | 1019.3 |
| 20260506133105 | 54 | 50 | 0.9 | 3.5 | 0.00 | 0.08 | 0.00 | 83 | 1019.2 |
| 20260506131556 | 54 | 304 | 0.0 | 1.7 | 0.00 | 0.08 | 0.00 | 83 | 1019.0 |
| 20260506130054 | 54 | 69 | 0.9 | 2.6 | 0.00 | 0.09 | 0.00 | 82 | 1018.8 |
| 20260506124552 | 54 | 101 | 0.9 | 2.6 | 0.00 | 0.09 | 0.00 | 81 | 1018.7 |
| 20260506123051 | 54 | 121 | 0.9 | 4.3 | 0.00 | 0.09 | 0.00 | 81 | 1018.8 |
| 20260506121559 | 54 | 66 | 0.0 | 3.5 | 0.00 | 0.09 | 0.00 | 83 | 1018.5 |
| 20260506120115 | 54 | 91 | 0.9 | 3.5 | 0.00 | 0.11 | 0.00 | 83 | 1018.5 |
| 20260506114548 | 55 | 97 | 1.7 | 4.3 | 0.00 | 0.11 | 0.00 | 82 | 1018.4 |
| 20260506113045 | 55 | 94 | 2.6 | 5.2 | 0.00 | 0.11 | 0.00 | 82 | 1018.4 |
| 20260506111543 | 56 | 92 | 1.7 | 3.5 | 0.00 | 0.11 | 0.00 | 83 | 1018.4 |
| 20260506110042 | 56 | 93 | 0.0 | 1.7 | 0.00 | 0.11 | 0.00 | 83 | 1018.4 |
| 20260506104542 | 56 | 64 | 0.0 | 0.9 | 0.00 | 0.11 | 0.00 | 83 | 1018.5 |
| 20260506103040 | 56 | 69 | 0.0 | 1.7 | 0.00 | 0.11 | 0.00 | 82 | 1018.4 |
| 20260506101540 | 56 | 73 | 0.0 | 1.7 | 0.00 | 0.11 | 0.00 | 82 | 1018.4 |
| 20260506100039 | 57 | 101 | 0.0 | 1.7 | 0.00 | 0.11 | 0.00 | 82 | 1018.4 |
| 20260506094545 | 57 | 88 | 0.0 | 1.7 | 0.00 | 0.11 | 0.00 | 82 | 1018.5 |
| 20260506093045 | 57 | 70 | 0.0 | 1.7 | 0.00 | 0.11 | 0.00 | 82 | 1018.5 |
| 20260506091537 | 57 | 112 | 0.0 | 1.7 | 0.00 | 0.11 | 0.00 | 79 | 1018.6 |
| 20260506090034 | 57 | 111 | 0.9 | 3.5 | 0.00 | 0.11 | 0.00 | 81 | 1018.7 |
| 20260506084533 | 57 | 106 | 0.9 | 2.6 | 0.00 | 0.11 | 0.00 | 81 | 1018.7 |
| 20260506083031 | 57 | 121 | 0.9 | 4.3 | 0.00 | 0.11 | 0.00 | 82 | 1018.8 |
| 20260506081530 | 58 | 132 | 0.9 | 3.5 | 0.00 | 0.11 | 0.00 | 83 | 1018.9 |
| 20260506073026 | 58 | 118 | 0.9 | 4.3 | 0.00 | 0.11 | 0.00 | 81 | 1018.7 |
| 20260506071526 | 58 | 99 | 1.7 | 4.3 | 0.00 | 0.11 | 0.00 | 81 | 1018.9 |
| 20260506061529 | 59 | 92 | 0.9 | 5.2 | 0.00 | 0.11 | 0.11 | 78 | 1018.6 |